logo tempoitalia

Diretta Meteo Lampedusa, Italiamercoledì 12 maggio ore 07:20

Mappa
Sereno 18 °C Sereno 24 Ore: T.min 18 T.max 21
Ponente Nord/NOvest Km/h 31.5 Punto di rugiada: 16 °C Umidità: 88% Visibilità: 10 Km
Il sole sorge alle: 06:05 Il sole tramonta alle: 20:06
12 Maggio 2021 07:20 tempo osservato: Sereno Sereno 18 88 1016 vento: Nord N/NO 31.5
12 Maggio 2021 06:50 tempo osservato: Sereno Sereno 18 88 1016 vento: Nord N/NO 31.5
12 Maggio 2021 06:20 tempo osservato: Sereno Sereno 18 82 1016 vento: Nord NO 25.9
12 Maggio 2021 05:20 tempo osservato: Sereno Sereno 18 82 1016 vento: Nord NO 25.9
12 Maggio 2021 04:50 tempo osservato: Sereno Sereno 18 93 1016 vento: Nord N/NO 24
12 Maggio 2021 04:20 tempo osservato: Sereno Sereno 18 93 1016 vento: Nord N/NO 24
12 Maggio 2021 03:50 tempo osservato: Sereno Sereno 18 93 1016 vento: Nord N/NO 25.9
12 Maggio 2021 03:20 tempo osservato: Sereno Sereno 18 88 1016 vento: Nord N/NO 29.6
12 Maggio 2021 02:50 tempo osservato: Sereno Sereno 18 93 1016 vento: Nord N/NO 29.6
12 Maggio 2021 02:20 tempo osservato: Sereno Sereno 18 100 1016 vento: Nord N/NO 24
12 Maggio 2021 01:50 tempo osservato: Sereno Sereno 18 100 1016 vento: Nord N 24
12 Maggio 2021 01:20 tempo osservato: Sereno Sereno 18 100 1016 vento: Nord N 24
12 Maggio 2021 00:50 tempo osservato: Sereno Sereno 18 100 1016 vento: Nord N 27.8
12 Maggio 2021 00:20 tempo osservato: Sereno Sereno 18 100 1016 vento: Nord N 31.5
11 Maggio 2021 23:50 tempo osservato: Sereno Sereno 18 100 1016 vento: Nord N 33.3
11 Maggio 2021 23:20 tempo osservato: Sereno Sereno 19 100 1016 vento: Nord N 35.2
11 Maggio 2021 22:50 tempo osservato: Sereno Sereno 19 93 1016 vento: Nord N 33.3
11 Maggio 2021 22:20 tempo osservato: Sereno Sereno 19 93 1016 vento: Nord N 35.2
11 Maggio 2021 21:50 tempo osservato: Sereno Sereno 19 100 1016 vento: Nord N 37
11 Maggio 2021 21:20 tempo osservato: Sereno Sereno 19 100 1016 vento: Nord N 37
11 Maggio 2021 20:20 tempo osservato: Nuvoloso Nuvoloso 19 100 1015 vento: Nord N 27.8
11 Maggio 2021 19:50 tempo osservato: Molto Nuvoloso Molto Nuvoloso 19 100 1015 vento: Nord N 24
11 Maggio 2021 19:20 tempo osservato: Poco Nuvoloso Poco Nuvoloso 19 100 1014 vento: Nord N 24
11 Maggio 2021 18:50 tempo osservato: Sereno Sereno 20 100 1014 vento: Nord N 20.3
11 Maggio 2021 18:20 tempo osservato: Sereno Sereno 20 100 1014 vento: Nord N/NE 20.3
11 Maggio 2021 17:50 tempo osservato: Sereno Sereno 20 100 1014 vento: Nord N/NE 18.5
11 Maggio 2021 17:20 tempo osservato: Sereno Sereno 20 100 1013 vento: Nord N/NE 22.2
11 Maggio 2021 16:50 tempo osservato: Sereno Sereno 21 100 1013 vento: Nord NE 22.2
11 Maggio 2021 16:20 tempo osservato: Sereno Sereno 21 100 1013 vento: Nord N/NE 20.3
11 Maggio 2021 15:50 tempo osservato: Sereno Sereno 21 100 1013 vento: Nord N/NE 20.3
11 Maggio 2021 15:20 tempo osservato: Sereno Sereno 21 100 1013 vento: Nord N/NE 20.3
11 Maggio 2021 14:50 tempo osservato: Sereno Sereno 21 94 1014 vento: Nord N/NE 18.5
11 Maggio 2021 14:20 tempo osservato: Sereno Sereno 21 94 1014 vento: Nord N/NE 16.7
11 Maggio 2021 13:50 tempo osservato: Sereno Sereno 21 88 1014 vento: Nord N/NE 11.1
11 Maggio 2021 13:20 tempo osservato: Sereno Sereno 21 94 1014 vento: Nord N/NE 11.1
11 Maggio 2021 12:50 tempo osservato: Sereno Sereno 21 94 1013 vento: Nord E 7.4
11 Maggio 2021 12:20 tempo osservato: Sereno Sereno 21 94 1013 vento: Nord E/SE 13
11 Maggio 2021 11:50 tempo osservato: Sereno Sereno 21 94 1014 vento: Nord SE 9.3
11 Maggio 2021 11:20 tempo osservato: Sereno Sereno 21 94 1013 vento: Nord E/SE 20.3
11 Maggio 2021 10:50 tempo osservato: Sereno Sereno 21 94 1012 vento: Nord E/SE 24
11 Maggio 2021 10:20 tempo osservato: Sereno Sereno 20 100 1012 vento: Nord E/SE 27.8
11 Maggio 2021 09:50 tempo osservato: Sereno Sereno 20 100 1012 vento: Nord E/SE 27.8
11 Maggio 2021 09:20 tempo osservato: Sereno Sereno 20 100 1012 vento: Nord E/SE 27.8
11 Maggio 2021 08:50 tempo osservato: Sereno Sereno 20 100 1012 vento: Nord E/SE 25.9
11 Maggio 2021 08:20 tempo osservato: Sereno Sereno 19 100 1012 vento: Nord E/SE 25.9